Year,Month,Day,Hour,Minute,Value (Times are PST for temperature in C)
2014,11,16,00,00,-2.60
2014,11,16,00,01,-2.60
2014,11,16,00,02,-2.60
2014,11,16,00,03,-2.60
2014,11,16,00,04,-2.60
2014,11,16,00,05,-2.60
2014,11,16,00,06,-2.60
2014,11,16,00,07,-2.70
2014,11,16,00,08,-2.70
2014,11,16,00,09,-2.70
2014,11,16,00,10,-2.70
2014,11,16,00,11,-2.70
2014,11,16,00,12,-2.70
2014,11,16,00,13,-2.70
2014,11,16,00,14,-2.70
2014,11,16,00,15,-2.70
2014,11,16,00,16,-2.70
2014,11,16,00,17,-2.70
2014,11,16,00,18,-2.70
2014,11,16,00,19,-2.70
2014,11,16,00,20,-2.70
2014,11,16,00,21,-2.70
2014,11,16,00,22,-2.70
2014,11,16,00,23,-2.70
2014,11,16,00,24,-2.70
2014,11,16,00,25,-2.70
2014,11,16,00,26,-2.70
2014,11,16,00,27,-2.70
2014,11,16,00,28,-2.70
2014,11,16,00,29,-2.70
2014,11,16,00,30,-2.70
2014,11,16,00,31,-2.70
2014,11,16,00,32,-2.70
2014,11,16,00,33,-2.70
2014,11,16,00,34,-2.70
2014,11,16,00,35,-2.70
2014,11,16,00,36,-2.70
2014,11,16,00,37,-2.80
2014,11,16,00,38,-2.80
2014,11,16,00,39,-2.80
2014,11,16,00,40,-2.80
2014,11,16,00,41,-2.80
2014,11,16,00,42,-2.80
2014,11,16,00,43,-2.70
2014,11,16,00,44,-2.70
2014,11,16,00,45,-2.70
2014,11,16,00,46,-2.70
2014,11,16,00,47,-2.70
2014,11,16,00,48,-2.70
2014,11,16,00,49,-2.70
2014,11,16,00,50,-2.70
2014,11,16,00,51,-2.70
2014,11,16,00,52,-2.70
2014,11,16,00,53,-2.70
2014,11,16,00,54,-2.70
2014,11,16,00,55,-2.70
2014,11,16,00,56,-2.70
2014,11,16,00,57,-2.70
2014,11,16,00,58,-2.70
2014,11,16,00,59,-2.70
2014,11,16,01,00,-2.70
2014,11,16,01,01,-2.70
2014,11,16,01,02,-2.70
2014,11,16,01,03,-2.70
2014,11,16,01,04,-2.70
2014,11,16,01,05,-2.70
2014,11,16,01,06,-2.80
2014,11,16,01,07,-2.80
2014,11,16,01,08,-2.80
2014,11,16,01,09,-2.80
2014,11,16,01,10,-2.80
2014,11,16,01,11,-2.80
2014,11,16,01,12,-2.80
2014,11,16,01,13,-2.80
2014,11,16,01,14,-2.80
2014,11,16,01,15,-2.80
2014,11,16,01,16,-2.80
2014,11,16,01,17,-2.80
2014,11,16,01,18,-2.80
2014,11,16,01,19,-2.80
2014,11,16,01,20,-2.80
2014,11,16,01,21,-2.80
2014,11,16,01,22,-2.80
2014,11,16,01,23,-2.70
2014,11,16,01,24,-2.70
2014,11,16,01,25,-2.80
2014,11,16,01,26,-2.80
2014,11,16,01,27,-2.80
2014,11,16,01,28,-2.80
2014,11,16,01,29,-2.80
2014,11,16,01,30,-2.80
2014,11,16,01,31,-2.80
2014,11,16,01,32,-2.80
2014,11,16,01,33,-2.80
2014,11,16,01,34,-2.90
2014,11,16,01,35,-2.90
2014,11,16,01,36,-2.90
2014,11,16,01,37,-2.90
2014,11,16,01,38,-2.90
2014,11,16,01,39,-2.90
2014,11,16,01,40,-2.90
2014,11,16,01,41,-2.90
2014,11,16,01,42,-2.90
2014,11,16,01,43,-2.90
2014,11,16,01,44,-2.90
2014,11,16,01,45,-3.00
2014,11,16,01,46,-3.00
2014,11,16,01,47,-3.00
2014,11,16,01,48,-3.00
2014,11,16,01,49,-3.00
2014,11,16,01,50,-3.00
2014,11,16,01,51,-3.00
2014,11,16,01,52,-3.10
2014,11,16,01,53,-3.10
2014,11,16,01,54,-3.10
2014,11,16,01,55,-3.10
2014,11,16,01,56,-3.10
2014,11,16,01,57,-3.10
2014,11,16,01,58,-3.10
2014,11,16,01,59,-3.10
2014,11,16,02,00,-3.10
2014,11,16,02,01,-3.10
2014,11,16,02,02,-3.10
2014,11,16,02,03,-3.10
2014,11,16,02,04,-3.10
2014,11,16,02,05,-3.10
2014,11,16,02,06,-3.10
2014,11,16,02,07,-3.10
2014,11,16,02,08,-3.10
2014,11,16,02,09,-3.10
2014,11,16,02,10,-3.10
2014,11,16,02,11,-3.10
2014,11,16,02,12,-3.10
2014,11,16,02,13,-3.10
2014,11,16,02,14,-3.10
2014,11,16,02,15,-3.10
2014,11,16,02,16,-3.10
2014,11,16,02,17,-3.10
2014,11,16,02,18,-3.10
2014,11,16,02,19,-3.10
2014,11,16,02,20,-3.10
2014,11,16,02,21,-3.10
2014,11,16,02,22,-3.10
2014,11,16,02,23,-3.10
2014,11,16,02,24,-3.10
2014,11,16,02,25,-3.10
2014,11,16,02,26,-3.10
2014,11,16,02,27,-3.20
2014,11,16,02,28,-3.20
2014,11,16,02,29,-3.10
2014,11,16,02,30,-3.10
2014,11,16,02,31,-3.10
2014,11,16,02,32,-3.10
2014,11,16,02,33,-3.10
2014,11,16,02,34,-3.10
2014,11,16,02,35,-3.10
2014,11,16,02,36,-3.00
2014,11,16,02,37,-3.00
2014,11,16,02,38,-3.00
2014,11,16,02,39,-3.00
2014,11,16,02,40,-3.00
2014,11,16,02,41,-2.90
2014,11,16,02,42,-2.90
2014,11,16,02,43,-2.90
2014,11,16,02,44,-2.90
2014,11,16,02,45,-2.90
2014,11,16,02,46,-2.90
2014,11,16,02,47,-2.90
2014,11,16,02,48,-2.90
2014,11,16,02,49,-2.90
2014,11,16,02,50,-2.90
2014,11,16,02,51,-3.00
2014,11,16,02,52,-3.00
2014,11,16,02,53,-3.00
2014,11,16,02,54,-3.00
2014,11,16,02,55,-3.00
2014,11,16,02,56,-3.00
2014,11,16,02,57,-3.00
2014,11,16,02,58,-3.00
2014,11,16,02,59,-3.00
2014,11,16,03,00,-3.00
2014,11,16,03,01,-3.00
2014,11,16,03,02,-3.10
2014,11,16,03,03,-3.10
2014,11,16,03,04,-3.10
2014,11,16,03,05,-3.10
2014,11,16,03,06,-3.00
2014,11,16,03,07,-3.10
2014,11,16,03,08,-3.00
2014,11,16,03,09,-3.00
2014,11,16,03,10,-3.00
2014,11,16,03,11,-3.00
2014,11,16,03,12,-3.00
2014,11,16,03,13,-3.00
2014,11,16,03,14,-3.00
2014,11,16,03,15,-3.00
2014,11,16,03,16,-3.00
2014,11,16,03,17,-3.00
2014,11,16,03,18,-3.00
2014,11,16,03,19,-3.00
2014,11,16,03,20,-2.90
2014,11,16,03,21,-3.00
2014,11,16,03,22,-2.90
2014,11,16,03,23,-2.90
2014,11,16,03,24,-2.90
2014,11,16,03,25,-2.90
2014,11,16,03,26,-2.90
2014,11,16,03,27,-2.90
2014,11,16,03,28,-2.90
2014,11,16,03,29,-2.90
2014,11,16,03,30,-2.90
2014,11,16,03,31,-2.90
2014,11,16,03,32,-2.90
2014,11,16,03,33,-2.90
2014,11,16,03,34,-2.90
2014,11,16,03,35,-2.90
2014,11,16,03,36,-2.90
2014,11,16,03,37,-2.90
2014,11,16,03,38,-2.90
2014,11,16,03,39,-2.90
2014,11,16,03,40,-3.00
2014,11,16,03,41,-3.00
2014,11,16,03,42,-3.00
2014,11,16,03,43,-3.00
2014,11,16,03,44,-2.90
2014,11,16,03,45,-2.90
2014,11,16,03,46,-2.90
2014,11,16,03,47,-2.90
2014,11,16,03,48,-2.90
2014,11,16,03,49,-2.90
2014,11,16,03,50,-2.90
2014,11,16,03,51,-2.90
2014,11,16,03,52,-2.90
2014,11,16,03,53,-2.90
2014,11,16,03,54,-2.90
2014,11,16,03,55,-2.90
2014,11,16,03,56,-2.90
2014,11,16,03,57,-2.90
2014,11,16,03,58,-2.90
2014,11,16,03,59,-2.90
2014,11,16,04,00,-2.90
2014,11,16,04,01,-2.90
2014,11,16,04,02,-2.90
2014,11,16,04,03,-2.90
2014,11,16,04,04,-2.90
2014,11,16,04,05,-2.90
2014,11,16,04,06,-2.90
2014,11,16,04,07,-2.90
2014,11,16,04,08,-2.90
2014,11,16,04,09,-2.90
2014,11,16,04,10,-2.90
2014,11,16,04,11,-2.90
2014,11,16,04,12,-2.90
2014,11,16,04,13,-2.90
2014,11,16,04,14,-2.90
2014,11,16,04,15,-2.90
2014,11,16,04,16,-2.90
2014,11,16,04,17,-2.90
2014,11,16,04,18,-2.90
2014,11,16,04,19,-2.90
2014,11,16,04,20,-2.90
2014,11,16,04,21,-2.90
2014,11,16,04,22,-2.90
2014,11,16,04,23,-2.90
2014,11,16,04,24,-2.90
2014,11,16,04,25,-2.90
2014,11,16,04,26,-2.90
2014,11,16,04,27,-3.00
2014,11,16,04,28,-3.00
2014,11,16,04,29,-3.00
2014,11,16,04,30,-3.00
2014,11,16,04,31,-3.00
2014,11,16,04,32,-3.10
2014,11,16,04,33,-3.10
2014,11,16,04,34,-3.10
2014,11,16,04,35,-3.10
2014,11,16,04,36,-3.10
2014,11,16,04,37,-3.10
2014,11,16,04,38,-3.10
2014,11,16,04,39,-3.10
2014,11,16,04,40,-3.10
2014,11,16,04,41,-3.10
2014,11,16,04,42,-3.10
2014,11,16,04,43,-3.10
2014,11,16,04,44,-3.10
2014,11,16,04,45,-3.10
2014,11,16,04,46,-3.10
2014,11,16,04,47,-3.10
2014,11,16,04,48,-3.10
2014,11,16,04,49,-3.20
2014,11,16,04,50,-3.20
2014,11,16,04,51,-3.20
2014,11,16,04,52,-3.20
2014,11,16,04,53,-3.20
2014,11,16,04,54,-3.20
2014,11,16,04,55,-3.20
2014,11,16,04,56,-3.20
2014,11,16,04,57,-3.20
2014,11,16,04,58,-3.30
2014,11,16,04,59,-3.30
2014,11,16,05,00,-3.30
2014,11,16,05,01,-3.30
2014,11,16,05,02,-3.30
2014,11,16,05,03,-3.30
2014,11,16,05,04,-3.30
2014,11,16,05,05,-3.30
2014,11,16,05,06,-3.30
2014,11,16,05,07,-3.30
2014,11,16,05,08,-3.30
2014,11,16,05,09,-3.40
2014,11,16,05,10,-3.40
2014,11,16,05,11,-3.40
2014,11,16,05,12,-3.40
2014,11,16,05,13,-3.40
2014,11,16,05,14,-3.40
2014,11,16,05,15,-3.40
2014,11,16,05,16,-3.40
2014,11,16,05,17,-3.40
2014,11,16,05,18,-3.40
2014,11,16,05,19,-3.40
2014,11,16,05,20,-3.40
2014,11,16,05,21,-3.40
2014,11,16,05,22,-3.40
2014,11,16,05,23,-3.40
2014,11,16,05,24,-3.40
2014,11,16,05,25,-3.40
2014,11,16,05,26,-3.40
2014,11,16,05,27,-3.40
2014,11,16,05,28,-3.40
2014,11,16,05,29,-3.40
2014,11,16,05,30,-3.40
2014,11,16,05,31,-3.40
2014,11,16,05,32,-3.40
2014,11,16,05,33,-3.40
2014,11,16,05,34,-3.40
2014,11,16,05,35,-3.40
2014,11,16,05,36,-3.40
2014,11,16,05,37,-3.40
2014,11,16,05,38,-3.40
2014,11,16,05,39,-3.40
2014,11,16,05,40,-3.40
2014,11,16,05,41,-3.40
2014,11,16,05,42,-3.40
2014,11,16,05,43,-3.40
2014,11,16,05,44,-3.40
2014,11,16,05,45,-3.40
2014,11,16,05,46,-3.40
2014,11,16,05,47,-3.40
2014,11,16,05,48,-3.40
2014,11,16,05,49,-3.40
2014,11,16,05,50,-3.40
2014,11,16,05,51,-3.40
2014,11,16,05,52,-3.40
2014,11,16,05,53,-3.40
2014,11,16,05,54,-3.40
2014,11,16,05,55,-3.40
2014,11,16,05,56,-3.40
2014,11,16,05,57,-3.40
2014,11,16,05,58,-3.40
2014,11,16,05,59,-3.40
2014,11,16,06,00,-3.30
2014,11,16,06,01,-3.30
2014,11,16,06,02,-3.30
2014,11,16,06,03,-3.30
2014,11,16,06,04,-3.30
2014,11,16,06,05,-3.30
2014,11,16,06,06,-3.30
2014,11,16,06,07,-3.30
2014,11,16,06,08,-3.30
2014,11,16,06,09,-3.30
2014,11,16,06,10,-3.30
2014,11,16,06,11,-3.30
2014,11,16,06,12,-3.30
2014,11,16,06,13,-3.30
2014,11,16,06,14,-3.30
2014,11,16,06,15,-3.30
2014,11,16,06,16,-3.30
2014,11,16,06,17,-3.30
2014,11,16,06,18,-3.30
2014,11,16,06,19,-3.30
2014,11,16,06,20,-3.30
2014,11,16,06,21,-3.20
2014,11,16,06,22,-3.20
2014,11,16,06,23,-3.20
2014,11,16,06,24,-3.20
2014,11,16,06,25,-3.20
2014,11,16,06,26,-3.20
2014,11,16,06,27,-3.20
2014,11,16,06,28,-3.20
2014,11,16,06,29,-3.20
2014,11,16,06,30,-3.20
2014,11,16,06,31,-3.20
2014,11,16,06,32,-3.20
2014,11,16,06,33,-3.20
2014,11,16,06,34,-3.20
2014,11,16,06,35,-3.30
2014,11,16,06,36,-3.30
2014,11,16,06,37,-3.30
2014,11,16,06,38,-3.30
2014,11,16,06,39,-3.30
2014,11,16,06,40,-3.30
2014,11,16,06,41,-3.30
2014,11,16,06,42,-3.30
2014,11,16,06,43,-3.30
2014,11,16,06,44,-3.30
2014,11,16,06,45,-3.30
2014,11,16,06,46,-3.30
2014,11,16,06,47,-3.30
2014,11,16,06,48,-3.20
2014,11,16,06,49,-3.20
2014,11,16,06,50,-3.20
2014,11,16,06,51,-3.20
2014,11,16,06,52,-3.10
2014,11,16,06,53,-3.00
2014,11,16,06,54,-3.00
2014,11,16,06,55,-3.00
2014,11,16,06,56,-3.00
2014,11,16,06,57,-3.00
2014,11,16,06,58,-3.00
2014,11,16,06,59,-3.00
2014,11,16,07,00,-3.00
2014,11,16,07,01,-3.00
2014,11,16,07,02,-3.00
2014,11,16,07,03,-3.00
2014,11,16,07,04,-3.00
2014,11,16,07,05,-3.00
2014,11,16,07,06,-3.00
2014,11,16,07,07,-3.00
2014,11,16,07,08,-3.00
2014,11,16,07,09,-3.10
2014,11,16,07,10,-3.10
2014,11,16,07,11,-3.10
2014,11,16,07,12,-3.10
2014,11,16,07,13,-3.10
2014,11,16,07,14,-3.00
2014,11,16,07,15,-3.00
2014,11,16,07,16,-3.00
2014,11,16,07,17,-2.90
2014,11,16,07,18,-2.90
2014,11,16,07,19,-2.90
2014,11,16,07,20,-2.90
2014,11,16,07,21,-2.90
2014,11,16,07,22,-2.90
2014,11,16,07,23,-2.90
2014,11,16,07,24,-2.90
2014,11,16,07,25,-2.90
2014,11,16,07,26,-2.80
2014,11,16,07,27,-2.90
2014,11,16,07,28,-2.90
2014,11,16,07,29,-2.90
2014,11,16,07,30,-2.90
2014,11,16,07,31,-2.90
2014,11,16,07,32,-2.90
2014,11,16,07,33,-2.90
2014,11,16,07,34,-2.90
2014,11,16,07,35,-2.90
2014,11,16,07,36,-2.90
2014,11,16,07,37,-2.90
2014,11,16,07,38,-2.90
2014,11,16,07,39,-2.80
2014,11,16,07,40,-2.80
2014,11,16,07,41,-2.80
2014,11,16,07,42,-2.80
2014,11,16,07,43,-2.80
2014,11,16,07,44,-2.80
2014,11,16,07,45,-2.80
2014,11,16,07,46,-2.80
2014,11,16,07,47,-2.80
2014,11,16,07,48,-2.80
2014,11,16,07,49,-2.90
2014,11,16,07,50,-2.90
2014,11,16,07,51,-3.00
2014,11,16,07,52,-3.00
2014,11,16,07,53,-3.10
2014,11,16,07,54,-3.20
2014,11,16,07,55,-3.20
2014,11,16,07,56,-3.20
2014,11,16,07,57,-3.20
2014,11,16,07,58,-3.20
2014,11,16,07,59,-3.20
2014,11,16,08,00,-3.20
2014,11,16,08,01,-3.20
2014,11,16,08,02,-3.20
2014,11,16,08,03,-3.20
2014,11,16,08,04,-3.20
2014,11,16,08,05,-3.10
2014,11,16,08,06,-3.10
2014,11,16,08,07,-3.00
2014,11,16,08,08,-3.00
2014,11,16,08,09,-3.00
2014,11,16,08,10,-2.90
2014,11,16,08,11,-2.90
2014,11,16,08,12,-2.90
2014,11,16,08,13,-2.90
2014,11,16,08,14,-2.80
2014,11,16,08,15,-2.80
2014,11,16,08,16,-2.80
2014,11,16,08,17,-2.80
2014,11,16,08,18,-2.70
2014,11,16,08,19,-2.70
2014,11,16,08,20,-2.70
2014,11,16,08,21,-2.70
2014,11,16,08,22,-2.60
2014,11,16,08,23,-2.60
2014,11,16,08,24,-2.60
2014,11,16,08,25,-2.50
2014,11,16,08,26,-2.50
2014,11,16,08,27,-2.40
2014,11,16,08,28,-2.40
2014,11,16,08,29,-2.40
2014,11,16,08,30,-2.40
2014,11,16,08,31,-2.30
2014,11,16,08,32,-2.20
2014,11,16,08,33,-2.20
2014,11,16,08,34,-2.10
2014,11,16,08,35,-2.00
2014,11,16,08,36,-1.90
2014,11,16,08,37,-1.80
2014,11,16,08,38,-1.70
2014,11,16,08,39,-1.70
2014,11,16,08,40,-1.60
2014,11,16,08,41,-1.50
2014,11,16,08,42,-1.50
2014,11,16,08,43,-1.40
2014,11,16,08,44,-1.40
2014,11,16,08,45,-1.30
2014,11,16,08,46,-1.30
2014,11,16,08,47,-1.30
2014,11,16,08,48,-1.20
2014,11,16,08,49,-1.10
2014,11,16,08,50,-1.10
2014,11,16,08,51,-1.00
2014,11,16,08,52,-0.90
2014,11,16,08,53,-0.90
2014,11,16,08,54,-0.80
2014,11,16,08,55,-0.80
2014,11,16,08,56,-0.70
2014,11,16,08,57,-0.70
2014,11,16,08,58,-0.70
2014,11,16,08,59,-0.60
2014,11,16,09,00,-0.60
2014,11,16,09,01,-0.50
2014,11,16,09,02,-0.40
2014,11,16,09,03,-0.40
2014,11,16,09,04,-0.30
2014,11,16,09,05,-0.30
2014,11,16,09,06,-0.20
2014,11,16,09,07,-0.20
2014,11,16,09,08,-0.10
2014,11,16,09,09,-0.10
2014,11,16,09,10,-0.10
2014,11,16,09,11,0.00
2014,11,16,09,12,0.00
2014,11,16,09,13,0.10
2014,11,16,09,14,0.10
2014,11,16,09,15,0.20
2014,11,16,09,16,0.20
2014,11,16,09,17,0.30
2014,11,16,09,18,0.30
2014,11,16,09,19,0.30
2014,11,16,09,20,0.40
2014,11,16,09,21,0.40
2014,11,16,09,22,0.50
2014,11,16,09,23,0.60
2014,11,16,09,24,0.60
2014,11,16,09,25,0.60
2014,11,16,09,26,0.70
2014,11,16,09,27,0.70
2014,11,16,09,28,0.80
2014,11,16,09,29,0.80
2014,11,16,09,30,0.90
2014,11,16,09,31,0.90
2014,11,16,09,32,1.00
2014,11,16,09,33,1.10
2014,11,16,09,34,1.10
2014,11,16,09,35,1.20
2014,11,16,09,36,1.30
2014,11,16,09,37,1.30
2014,11,16,09,38,1.30
2014,11,16,09,39,1.40
2014,11,16,09,40,1.50
2014,11,16,09,41,1.50
2014,11,16,09,42,1.60
2014,11,16,09,43,1.70
2014,11,16,09,44,1.70
2014,11,16,09,45,1.80
2014,11,16,09,46,1.90
2014,11,16,09,47,1.90
2014,11,16,09,48,2.00
2014,11,16,09,49,2.10
2014,11,16,09,50,2.10
2014,11,16,09,51,2.20
2014,11,16,09,52,2.30
2014,11,16,09,53,2.40
2014,11,16,09,54,2.50
2014,11,16,09,55,2.50
2014,11,16,09,56,2.60
2014,11,16,09,57,2.70
2014,11,16,09,58,2.80
2014,11,16,09,59,2.90
2014,11,16,10,00,3.00
2014,11,16,10,01,3.10
2014,11,16,10,02,3.20
2014,11,16,10,03,3.30
2014,11,16,10,04,3.40
2014,11,16,10,05,3.50
2014,11,16,10,06,3.60
2014,11,16,10,07,3.60
2014,11,16,10,08,3.70
2014,11,16,10,09,3.80
2014,11,16,10,10,3.90
2014,11,16,10,11,4.00
2014,11,16,10,12,4.00
2014,11,16,10,13,4.10
2014,11,16,10,14,4.20
2014,11,16,10,15,4.20
2014,11,16,10,16,4.30
2014,11,16,10,17,4.30
2014,11,16,10,18,4.30
2014,11,16,10,19,4.40
2014,11,16,10,20,4.40
2014,11,16,10,21,4.50
2014,11,16,10,22,4.50
2014,11,16,10,23,4.60
2014,11,16,10,24,4.60
2014,11,16,10,25,4.60
2014,11,16,10,26,4.70
2014,11,16,10,27,4.70
2014,11,16,10,28,4.70
2014,11,16,10,29,4.80
2014,11,16,10,30,4.80
2014,11,16,10,31,4.80
2014,11,16,10,32,4.80
2014,11,16,10,33,4.70
2014,11,16,10,34,4.70
2014,11,16,10,35,4.60
2014,11,16,10,36,4.50
2014,11,16,10,37,4.40
2014,11,16,10,38,4.40
2014,11,16,10,39,4.30
2014,11,16,10,40,4.20
2014,11,16,10,41,4.20
2014,11,16,10,42,4.20
2014,11,16,10,43,4.20
2014,11,16,10,44,4.10
2014,11,16,10,45,4.20
2014,11,16,10,46,4.10
2014,11,16,10,47,4.10
2014,11,16,10,48,4.10
2014,11,16,10,49,4.20
2014,11,16,10,50,4.20
2014,11,16,10,51,4.20
2014,11,16,10,52,4.20
2014,11,16,10,53,4.20
2014,11,16,10,54,4.20
2014,11,16,10,55,4.20
2014,11,16,10,56,4.20
2014,11,16,10,57,4.20
2014,11,16,10,58,4.20
2014,11,16,10,59,4.30
2014,11,16,11,00,4.30
2014,11,16,11,01,4.30
2014,11,16,11,02,4.40
2014,11,16,11,03,4.40
2014,11,16,11,04,4.50
2014,11,16,11,05,4.50
2014,11,16,11,06,4.60
2014,11,16,11,07,4.60
2014,11,16,11,08,4.70
2014,11,16,11,09,4.70
2014,11,16,11,10,4.70
2014,11,16,11,11,4.70
2014,11,16,11,12,4.70
2014,11,16,11,13,4.70
2014,11,16,11,14,4.70
2014,11,16,11,15,4.70
2014,11,16,11,16,4.70
2014,11,16,11,17,4.70
2014,11,16,11,18,4.70
2014,11,16,11,19,4.70
2014,11,16,11,20,4.70
2014,11,16,11,21,4.70
2014,11,16,11,22,4.70
2014,11,16,11,23,4.70
2014,11,16,11,24,4.70
2014,11,16,11,25,4.80
2014,11,16,11,26,4.80
2014,11,16,11,27,4.90
2014,11,16,11,28,4.90
2014,11,16,11,29,4.90
2014,11,16,11,30,5.00
2014,11,16,11,31,5.00
2014,11,16,11,32,5.00
2014,11,16,11,33,5.00
2014,11,16,11,34,5.10
2014,11,16,11,35,5.10
2014,11,16,11,36,5.10
2014,11,16,11,37,5.10
2014,11,16,11,38,5.10
2014,11,16,11,39,5.10
2014,11,16,11,40,5.10
2014,11,16,11,41,5.20
2014,11,16,11,42,5.20
2014,11,16,11,43,5.20
2014,11,16,11,44,5.30
2014,11,16,11,45,5.30
2014,11,16,11,46,5.30
2014,11,16,11,47,5.30
2014,11,16,11,48,5.30
2014,11,16,11,49,5.30
2014,11,16,11,50,5.30
2014,11,16,11,51,5.30
2014,11,16,11,52,5.40
2014,11,16,11,53,5.40
2014,11,16,11,54,5.40
2014,11,16,11,55,5.40
2014,11,16,11,56,5.40
2014,11,16,11,57,5.50
2014,11,16,11,58,5.50
2014,11,16,11,59,5.50
2014,11,16,12,00,5.60
2014,11,16,12,01,5.60
2014,11,16,12,02,5.60
2014,11,16,12,03,5.60
2014,11,16,12,04,5.60
2014,11,16,12,05,5.60
2014,11,16,12,06,5.70
2014,11,16,12,07,5.70
2014,11,16,12,08,5.70
2014,11,16,12,09,5.70
2014,11,16,12,10,5.70
2014,11,16,12,11,5.70
2014,11,16,12,12,5.70
2014,11,16,12,13,5.70
2014,11,16,12,14,5.70
2014,11,16,12,15,5.70
2014,11,16,12,16,5.70
2014,11,16,12,17,5.70
2014,11,16,12,18,5.80
2014,11,16,12,19,5.80
2014,11,16,12,20,5.80
2014,11,16,12,21,5.80
2014,11,16,12,22,5.80
2014,11,16,12,23,5.80
2014,11,16,12,24,5.80
2014,11,16,12,25,5.80
2014,11,16,12,26,5.80
2014,11,16,12,27,5.80
2014,11,16,12,28,5.90
2014,11,16,12,29,5.90
2014,11,16,12,30,5.90
2014,11,16,12,31,5.90
2014,11,16,12,32,5.80
2014,11,16,12,33,5.80
2014,11,16,12,34,5.80
2014,11,16,12,35,5.80
2014,11,16,12,36,5.80
2014,11,16,12,37,5.70
2014,11,16,12,38,5.70
2014,11,16,12,39,5.70
2014,11,16,12,40,5.70
2014,11,16,12,41,5.70
2014,11,16,12,42,5.70
2014,11,16,12,43,5.80
2014,11,16,12,44,5.80
2014,11,16,12,45,5.80
2014,11,16,12,46,5.80
2014,11,16,12,47,5.80
2014,11,16,12,48,5.80
2014,11,16,12,49,5.80
2014,11,16,12,50,5.80
2014,11,16,12,51,5.80
2014,11,16,12,52,5.70
2014,11,16,12,53,5.70
2014,11,16,12,54,5.70
2014,11,16,12,55,5.70
2014,11,16,12,56,5.70
2014,11,16,12,57,5.70
2014,11,16,12,58,5.70
2014,11,16,12,59,5.70
2014,11,16,13,00,5.60
2014,11,16,13,01,5.60
2014,11,16,13,02,5.60
2014,11,16,13,03,5.70
2014,11,16,13,04,5.70
2014,11,16,13,05,5.70
2014,11,16,13,06,5.70
2014,11,16,13,07,5.70
2014,11,16,13,08,5.70
2014,11,16,13,09,5.70
2014,11,16,13,10,5.70
2014,11,16,13,11,5.70
2014,11,16,13,12,5.80
2014,11,16,13,13,5.80
2014,11,16,13,14,5.80
2014,11,16,13,15,5.80
2014,11,16,13,16,5.80
2014,11,16,13,17,5.80
2014,11,16,13,18,5.80
2014,11,16,13,19,5.70
2014,11,16,13,20,5.70
2014,11,16,13,21,5.70
2014,11,16,13,22,5.70
2014,11,16,13,23,5.70
2014,11,16,13,24,5.70
2014,11,16,13,25,5.70
2014,11,16,13,26,5.70
2014,11,16,13,27,5.70
2014,11,16,13,28,5.70
2014,11,16,13,29,5.80
2014,11,16,13,30,5.80
2014,11,16,13,31,5.80
2014,11,16,13,32,5.80
2014,11,16,13,33,5.80
2014,11,16,13,34,5.80
2014,11,16,13,35,5.90
2014,11,16,13,36,5.90
2014,11,16,13,37,5.90
2014,11,16,13,38,5.90
2014,11,16,13,39,5.90
2014,11,16,13,40,6.00
2014,11,16,13,41,5.90
2014,11,16,13,42,6.00
2014,11,16,13,43,6.00
2014,11,16,13,44,6.00
2014,11,16,13,45,6.00
2014,11,16,13,46,6.00
2014,11,16,13,47,6.00
2014,11,16,13,48,6.00
2014,11,16,13,49,6.00
2014,11,16,13,50,6.00
2014,11,16,13,51,6.10
2014,11,16,13,52,6.10
2014,11,16,13,53,6.10
2014,11,16,13,54,6.10
2014,11,16,13,55,6.10
2014,11,16,13,56,6.10
2014,11,16,13,57,6.10
2014,11,16,13,58,6.10
2014,11,16,13,59,6.10
2014,11,16,14,00,6.10
2014,11,16,14,01,6.10
2014,11,16,14,02,6.00
2014,11,16,14,03,6.00
2014,11,16,14,04,6.00
2014,11,16,14,05,6.00
2014,11,16,14,06,6.00
2014,11,16,14,07,5.90
2014,11,16,14,08,5.90
2014,11,16,14,09,5.90
2014,11,16,14,10,5.90
2014,11,16,14,11,5.90
2014,11,16,14,12,5.90
2014,11,16,14,13,5.90
2014,11,16,14,14,5.90
2014,11,16,14,15,5.90
2014,11,16,14,16,5.90
2014,11,16,14,17,5.90
2014,11,16,14,18,5.90
2014,11,16,14,19,6.00
2014,11,16,14,20,6.00
2014,11,16,14,21,6.00
2014,11,16,14,22,6.00
2014,11,16,14,23,6.00
2014,11,16,14,24,6.00
2014,11,16,14,25,6.00
2014,11,16,14,26,6.10
2014,11,16,14,27,6.10
2014,11,16,14,28,6.10
2014,11,16,14,29,6.10
2014,11,16,14,30,6.20
2014,11,16,14,31,6.20
2014,11,16,14,32,6.20
2014,11,16,14,33,6.20
2014,11,16,14,34,6.20
2014,11,16,14,35,6.20
2014,11,16,14,36,6.20
2014,11,16,14,37,6.30
2014,11,16,14,38,6.30
2014,11,16,14,39,6.30
2014,11,16,14,40,6.30
2014,11,16,14,41,6.30
2014,11,16,14,42,6.30
2014,11,16,14,43,6.30
2014,11,16,14,44,6.30
2014,11,16,14,45,6.30
2014,11,16,14,46,6.30
2014,11,16,14,47,6.30
2014,11,16,14,48,6.30
2014,11,16,14,49,6.20
2014,11,16,14,50,6.20
2014,11,16,14,51,6.20
2014,11,16,14,52,6.20
2014,11,16,14,53,6.20
2014,11,16,14,54,6.20
2014,11,16,14,55,6.20
2014,11,16,14,56,6.10
2014,11,16,14,57,6.10
2014,11,16,14,58,6.10
2014,11,16,14,59,6.10
2014,11,16,15,00,6.10
2014,11,16,15,01,6.10
2014,11,16,15,02,6.10
2014,11,16,15,03,6.10
2014,11,16,15,04,6.10
2014,11,16,15,05,6.10
2014,11,16,15,06,6.10
2014,11,16,15,07,6.00
2014,11,16,15,08,6.00
2014,11,16,15,09,6.00
2014,11,16,15,10,6.00
2014,11,16,15,11,6.00
2014,11,16,15,12,6.00
2014,11,16,15,13,6.00
2014,11,16,15,14,6.00
2014,11,16,15,15,6.00
2014,11,16,15,16,5.90
2014,11,16,15,17,5.90
2014,11,16,15,18,5.90
2014,11,16,15,19,5.90
2014,11,16,15,20,5.90
2014,11,16,15,21,5.90
2014,11,16,15,22,5.90
2014,11,16,15,23,5.90
2014,11,16,15,24,5.90
2014,11,16,15,25,5.90
2014,11,16,15,26,5.90
2014,11,16,15,27,5.90
2014,11,16,15,28,5.90
2014,11,16,15,29,5.90
2014,11,16,15,30,5.90
2014,11,16,15,31,5.90
2014,11,16,15,32,5.90
2014,11,16,15,33,5.80
2014,11,16,15,34,5.80
2014,11,16,15,35,5.80
2014,11,16,15,36,5.80
2014,11,16,15,37,5.80
2014,11,16,15,38,5.80
2014,11,16,15,39,5.80
2014,11,16,15,40,5.80
2014,11,16,15,41,5.80
2014,11,16,15,42,5.80
2014,11,16,15,43,5.80
2014,11,16,15,44,5.80
2014,11,16,15,45,5.80
2014,11,16,15,46,5.80
2014,11,16,15,47,5.80
2014,11,16,15,48,5.80
2014,11,16,15,49,5.80
2014,11,16,15,50,5.80
2014,11,16,15,51,5.80
2014,11,16,15,52,5.80
2014,11,16,15,53,5.70
2014,11,16,15,54,5.70
2014,11,16,15,55,5.70
2014,11,16,15,56,5.70
2014,11,16,15,57,5.70
2014,11,16,15,58,5.70
2014,11,16,15,59,5.60
2014,11,16,16,00,5.60
2014,11,16,16,01,5.60
2014,11,16,16,02,5.60
2014,11,16,16,03,5.60
2014,11,16,16,04,5.50
2014,11,16,16,05,5.50
2014,11,16,16,06,5.50
2014,11,16,16,07,5.50
2014,11,16,16,08,5.40
2014,11,16,16,09,5.40
2014,11,16,16,10,5.40
2014,11,16,16,11,5.30
2014,11,16,16,12,5.30
2014,11,16,16,13,5.30
2014,11,16,16,14,5.20
2014,11,16,16,15,5.20
2014,11,16,16,16,5.20
2014,11,16,16,17,5.10
2014,11,16,16,18,5.00
2014,11,16,16,19,5.00
2014,11,16,16,20,4.90
2014,11,16,16,21,4.90
2014,11,16,16,22,4.80
2014,11,16,16,23,4.80
2014,11,16,16,24,4.70
2014,11,16,16,25,4.70
2014,11,16,16,26,4.60
2014,11,16,16,27,4.50
2014,11,16,16,28,4.50
2014,11,16,16,29,4.40
2014,11,16,16,30,4.40
2014,11,16,16,31,4.30
2014,11,16,16,32,4.30
2014,11,16,16,33,4.20
2014,11,16,16,34,4.20
2014,11,16,16,35,4.20
2014,11,16,16,36,4.10
2014,11,16,16,37,4.10
2014,11,16,16,38,4.00
2014,11,16,16,39,4.00
2014,11,16,16,40,3.90
2014,11,16,16,41,3.90
2014,11,16,16,42,3.80
2014,11,16,16,43,3.80
2014,11,16,16,44,3.70
2014,11,16,16,45,3.70
2014,11,16,16,46,3.60
2014,11,16,16,47,3.60
2014,11,16,16,48,3.50
2014,11,16,16,49,3.50
2014,11,16,16,50,3.40
2014,11,16,16,51,3.40
2014,11,16,16,52,3.30
2014,11,16,16,53,3.30
2014,11,16,16,54,3.30
2014,11,16,16,55,3.20
2014,11,16,16,56,3.20
2014,11,16,16,57,3.20
2014,11,16,16,58,3.10
2014,11,16,16,59,3.10
2014,11,16,17,00,3.10
2014,11,16,17,01,3.00
2014,11,16,17,02,3.00
2014,11,16,17,03,2.90
2014,11,16,17,04,2.90
2014,11,16,17,05,2.80
2014,11,16,17,06,2.80
2014,11,16,17,07,2.80
2014,11,16,17,08,2.70
2014,11,16,17,09,2.70
2014,11,16,17,10,2.60
2014,11,16,17,11,2.60
2014,11,16,17,12,2.50
2014,11,16,17,13,2.50
2014,11,16,17,14,2.50
2014,11,16,17,15,2.40
2014,11,16,17,16,2.40
2014,11,16,17,17,2.30
2014,11,16,17,18,2.30
2014,11,16,17,19,2.30
2014,11,16,17,20,2.20
2014,11,16,17,21,2.20
2014,11,16,17,22,2.20
2014,11,16,17,23,2.10
2014,11,16,17,24,2.10
2014,11,16,17,25,2.00
2014,11,16,17,26,2.00
2014,11,16,17,27,1.90
2014,11,16,17,28,1.90
2014,11,16,17,29,1.80
2014,11,16,17,30,1.80
2014,11,16,17,31,1.80
2014,11,16,17,32,1.70
2014,11,16,17,33,1.70
2014,11,16,17,34,1.70
2014,11,16,17,35,1.70
2014,11,16,17,36,1.60
2014,11,16,17,37,1.60
2014,11,16,17,38,1.60
2014,11,16,17,39,1.60
2014,11,16,17,40,1.50
2014,11,16,17,41,1.50